Starlink 31162

operational
NORAD ID: 58791 Int'l Des: 2024-012 Owner: SPXS Country: US Constellation: starlink
LEOCIRCULAR

Über Starlink 31162

Beschreibung wird geladen...

Live-Position

3D-Globus wird geladen...

Nächste Überflüge

Höhenverlauf

Altitude vs Time

uPlot chart will show altitude changes over time

Zweizeiliger Elementsatz

1 58791U 24012E 25257.51096937 -.00000075 00000-0 68191-5 0 9993
2 58791 43.0028 80.0511 0001731 266.9099 93.1555 15.27580875 94297
Epoch: 14. Sept. 2025 • Age: 40 hours

Aktueller Status

Höhe 483.3 km
Geschwindigkeit 7.63 km/s
Subsatellitenpunkt -2.65°S, 166.36°W
Startdatum 15. Jan. 2024
Alter 1.6 years
Typ internet

Technische Details

Klassifizierung Payload
Masse 730.00 kg
Trockenmasse 700.00 kg
Gesamtmasse 730.00 kg
Länge 0.30 m
Durchmesser 4.10 m
Spannweite 29.00 m
Form Box + pan
Hersteller SPXS
Bus-Typ Starlink V2M
Phasenstatus In Orbit
Besitzer/Staat SPXS/US

Große Konstellationen

Loading constellations...